[[{"header":{"parameterUnit":"m.s-1","parameterCategory":1,"la1":30.2991,"la2":30.254,"lo1":-89.0895,"lo2":-89.0444,"dy":0.0017,"dx":0.0017,"nx":28,"ny":28,"refTime":"2025-01-17T03:00:00:Z","depth":0,"parameterNumber":2,"parameterNumberName":"U-component_of_WINDS"},"data":[0,0,0,0,0,0,0,0,0,0,0,0,0,0,0,0,0,0,0,0,0,0,0,0,0,0,0,0,0,0,0,0,0,0,0,0,0,0,0,0,0,0,0,0,0,0,0,0,0,0,0,0,0,0,0,0,0,0,-1.6767,-1.6766,0,-1.6727,-1.6726,-1.6726,-1.6674,-1.6673,-1.6672,-1.6671,-1.6629,-1.6629,-1.6629,0,0,0,0,0,0,0,0,0,0,0,0,0,-1.6797,-1.6797,-1.6767,-1.6766,-1.6766,-1.6727,-1.6726,-1.6726,-1.6674,-1.6673,-1.6672,-1.6671,-1.663,-1.6629,-1.6629,0,0,0,0,0,0,0,0,0,0,0,0,0,-1.6773,-1.6797,-1.6767,-1.6735,-1.6732,-1.6727,-1.6726,-1.6726,-1.6674,-1.6673,-1.6672,-1.667,-1.663,-1.6629,-1.6629,-1.6651,0,0,-1.6627,-1.6627,0,0,0,0,0,0,0,0,-1.6775,-1.6772,-1.674,-1.6737,-1.6734,-1.6704,-1.6721,-1.6701,-1.6674,-1.6696,-1.6671,-1.667,-1.6655,-1.6653,-1.6648,-1.6649,-1.6647,-1.6627,-1.6627,-1.6627,-1.6627,0,0,0,0,0,0,0,-1.6776,-1.6773,-1.6751,-1.674,-1.6736,-1.6723,-1.6718,-1.6717,-1.6683,-1.6694,-1.669,-1.6686,-1.6653,-1.6648,-1.6646,-1.6647,-1.6627,-1.6627,-1.6626,-1.6626,-1.6663,-1.6664,0,0,0,0,0,0,-1.6783,-1.6775,-1.6752,-1.675,-1.6751,-1.6723,-1.6718,-1.6715,-1.6683,-1.6677,-1.6687,-1.6684,-1.665,-1.6647,-1.6645,-1.6668,-1.6627,-1.6626,-1.6626,-1.6662,-1.6663,-1.6665,0,0,0,0,0,0,-1.6784,-1.6781,-1.6754,-1.6761,-1.6757,-1.6724,-1.6721,-1.6715,-1.671,-1.6678,-1.6672,-1.6689,-1.6649,-1.6645,-1.665,-1.6665,-1.6626,-1.6626,-1.666,-1.6662,-1.6664,-1.6715,0,0,0,0,0,0,-1.6785,-1.6782,-1.679,-1.6762,-1.6757,-1.676,-1.6722,-1.6715,-1.6709,-1.6704,-1.6678,-1.6672,-1.6647,-1.6651,-1.6649,-1.6664,-1.6625,-1.6659,-1.6661,-1.6663,-1.6711,-1.6718,-1.6724,0,0,0,0,0,-1.6786,-1.6806,-1.6791,-1.6788,-1.6767,-1.6761,-1.6758,-1.6729,-1.6711,-1.6719,-1.6698,-1.6673,-1.6664,-1.6652,-1.6649,-1.6664,-1.6658,-1.666,-1.6663,-1.6708,-1.6717,-1.6723,0,0,0,0,0,0,-1.6837,-1.6802,-1.6785,-1.6796,-1.6782,-1.6752,-1.6761,-1.6739,-1.6729,-1.6725,-1.669,-1.6685,-1.6693,-1.6679,-1.6666,-1.6684,-1.6657,-1.666,-1.6692,-1.67,-1.6706,-1.6708,-1.6625,0,0,0,0,0,-1.685,-1.6848,-1.6818,-1.6831,-1.6825,-1.6794,-1.6791,-1.677,-1.6754,-1.6747,-1.6727,-1.6712,-1.6705,-1.6702,-1.6695,-1.6709,-1.6702,-1.6719,-1.6725,-1.673,-1.6732,-1.6738,-1.6744,-1.6674,-1.6674,-1.6674,0,0,-1.6876,-1.6856,-1.6858,-1.6841,-1.6827,-1.6826,-1.679,-1.679,-1.6788,-1.6747,-1.675,-1.6735,-1.6715,-1.6724,-1.6727,-1.6713,-1.675,-1.6734,-1.6738,-1.6737,-1.6741,-1.6748,-1.6754,-1.6676,-1.6676,-1.6675,0,0,-1.6922,-1.6908,-1.6917,-1.6904,-1.6884,-1.6864,-1.6866,-1.684,-1.6828,-1.683,-1.6799,-1.6796,-1.6786,-1.6773,-1.6766,-1.6807,-1.6783,-1.6806,-1.6837,-1.6843,-1.6849,-1.6853,-1.6867,-1.6872,-1.6808,-1.6808,-1.6809,0,-1.6957,-1.6954,-1.6924,-1.6926,-1.6919,-1.6883,-1.6891,-1.688,-1.6858,-1.6854,-1.6839,-1.6825,-1.6809,-1.6814,-1.6825,-1.682,-1.682,-1.6808,-1.685,-1.6855,-1.6859,-1.6871,-1.6876,-1.6811,-1.6811,-1.6811,-1.681,0,-1.6997,-1.6996,-1.7005,-1.6985,-1.698,-1.6985,-1.6955,-1.6953,-1.6933,-1.6914,-1.6916,-1.6897,-1.6884,-1.6884,-1.6864,-1.6886,-1.6877,-1.6857,-1.6829,-1.6869,-1.6879,-1.6884,-1.6815,-1.6814,-1.6813,-1.6813,0,0,-1.7074,-1.7038,-1.7041,-1.7032,-1.7007,-1.7005,-1.7008,-1.6996,-1.6994,-1.6981,-1.6982,-1.6974,-1.6955,-1.6946,-1.6925,-1.693,-1.6962,-1.6908,-1.6907,-1.6918,-1.6983,-1.6998,-1.7004,-1.6947,-1.6948,-1.6948,-1.6984,0,-1.7114,-1.7118,-1.7091,-1.7102,-1.71,-1.7065,-1.7067,-1.7052,-1.7035,-1.703,-1.701,-1.7005,-1.6981,-1.6975,-1.6979,-1.6958,-1.6975,-1.6955,-1.6946,-1.6946,-1.6951,-1.7009,-1.7025,-1.706,-1.6988,-1.6989,-1.6989,0,-1.7162,-1.7151,-1.7162,-1.7136,-1.7134,-1.7137,-1.7123,-1.7119,-1.7101,-1.7088,-1.7078,-1.7054,-1.7054,-1.7029,-1.7028,-1.7016,-1.701,-1.7,-1.7,-1.6997,-1.6969,-1.7007,-1.707,-1.7075,-1.6996,-1.6996,-1.6995,0,-1.7215,-1.7204,-1.7208,-1.7201,-1.7171,-1.7174,-1.7161,-1.7142,-1.7136,-1.7124,-1.7119,-1.7108,-1.7101,-1.7092,-1.7065,-1.7049,-1.7067,-1.704,-1.7055,-1.7056,-1.7059,-1.7059,-1.7122,-1.7059,-1.7059,-1.7058,-1.7058,0,-1.7263,-1.727,-1.7231,-1.7234,-1.7241,-1.721,-1.7218,-1.7202,-1.7185,-1.7183,-1.7152,-1.7151,-1.7116,-1.7111,-1.709,-1.7092,-1.7089,-1.7078,-1.7072,-1.708,-1.7081,-1.7075,-1.7071,-1.706,-1.7059,-1.7059,-1.7059,0,-1.7323,-1.7297,-1.7299,-1.7271,-1.7264,-1.727,-1.7246,-1.7246,-1.7227,-1.7225,-1.7223,-1.7193,-1.7185,-1.7157,-1.7143,-1.7128,-1.7136,-1.7126,-1.7142,-1.7138,-1.7154,-1.7153,-1.7214,-1.722,-1.7155,-1.7156,-1.7156,0,-1.7354,-1.7359,-1.7331,-1.7328,-1.7317,-1.7312,-1.7306,-1.7276,-1.727,-1.725,-1.7253,-1.7243,-1.7233,-1.7221,-1.7197,-1.7186,-1.7174,-1.7196,-1.7172,-1.7179,-1.7172,-1.7172,-1.7171,-1.7201,-1.7202,-1.7203,-1.7203,0,-1.7411,-1.7398,-1.7391,-1.7379,-1.7373,-1.7362,-1.7349,-1.7348,-1.7314,-1.7309,-1.7301,-1.7293,-1.7278,-1.7268,-1.7252,-1.7239,-1.7215,-1.7211,-1.7214,-1.7221,-1.723,-1.7224,-1.7155,-1.721,-1.7209,-1.7208,-1.7208,-1.7208,-1.7457,-1.7459,-1.744,-1.7432,-1.7419,-1.7408,-1.7407,-1.7388,-1.738,-1.7366,-1.7349,-1.7342,-1.7323,-1.7299,-1.7287,-1.7281,-1.7268,-1.7273,-1.7273,-1.7274,-1.7278,-1.7232,-1.7278,-1.7278,-1.7278,-1.7278,-1.7278,0,-1.7511,-1.7497,-1.7491,-1.7474,-1.7468,-1.7447,-1.7431,-1.7427,-1.7422,-1.7406,-1.7397,-1.7387,-1.7377,-1.7352,-1.7339,-1.7339,-1.7328,-1.7337,-1.7335,-1.7332,-1.7291,-1.7289,-1.7346,-1.7346,-1.7346,-1.7346,-1.7346,-1.7346,-1.7539,-1.7542,-1.7526,-1.7522,-1.7507,-1.7501,-1.7494,-1.7483,-1.747,-1.746,-1.7451,-1.7436,-1.7416,-1.7401,-1.7391,-1.7383,-1.7379,-1.7392,-1.7381,-1.7342,-1.7335,-1.7329,-1.7327,-1.7391,-1.7391,-1.7423,-1.7423,-1.7423]},{"header":{"parameterUnit":"m.s-1","parameterCategory":1,"la1":30.2991,"la2":30.254,"lo1":-89.0895,"lo2":-89.0444,"dy":0.0017,"dx":0.0017,"nx":28,"ny":28,"refTime":"2025-01-17T03:00:00:Z","depth":0,"parameterNumber":3,"parameterNumberName":"V-component_of_WINDS"},"data":[0,0,0,0,0,0,0,0,0,0,0,0,0,0,0,0,0,0,0,0,0,0,0,0,0,0,0,0,0,0,0,0,0,0,0,0,0,0,0,0,0,0,0,0,0,0,0,0,0,0,0,0,0,0,0,0,0,0,2.0652,2.0652,0,2.0704,2.0705,2.0705,2.069,2.0689,2.0687,2.0686,2.0741,2.0744,2.0746,0,0,0,0,0,0,0,0,0,0,0,0,0,2.0541,2.0543,2.0652,2.0652,2.0653,2.0704,2.0705,2.0706,2.069,2.0689,2.0687,2.0686,2.0741,2.0743,2.0746,0,0,0,0,0,0,0,0,0,0,0,0,0,2.0591,2.0544,2.0652,2.0651,2.0652,2.0704,2.0705,2.0706,2.069,2.0688,2.0687,2.0685,2.074,2.0743,2.0747,2.0803,0,0,2.0758,2.076,0,0,0,0,0,0,0,0,2.0588,2.0595,2.0651,2.0651,2.0652,2.0689,2.0686,2.0738,2.0691,2.0676,2.0686,2.0684,2.0725,2.073,2.0744,2.0805,2.0808,2.0759,2.0761,2.0762,2.0763,0,0,0,0,0,0,0,2.0585,2.0593,2.0673,2.0652,2.0652,2.065,2.0655,2.0696,2.0709,2.0677,2.0676,2.0682,2.0725,2.074,2.0745,2.0809,2.0758,2.0762,2.0764,2.0766,2.0923,2.0925,0,0,0,0,0,0,2.058,2.059,2.0671,2.0674,2.0615,2.0653,2.0659,2.0679,2.0709,2.0712,2.0683,2.0681,2.0734,2.074,2.0747,2.0817,2.0762,2.0766,2.0768,2.0921,2.0924,2.0926,0,0,0,0,0,0,2.0578,2.0588,2.0669,2.0632,2.0642,2.0657,2.0679,2.0681,2.0695,2.0714,2.0716,2.0696,2.0733,2.0741,2.079,2.0819,2.0768,2.0771,2.0919,2.0922,2.0925,2.0958,0,0,0,0,0,0,2.0575,2.0587,2.0608,2.0632,2.0644,2.071,2.0681,2.0683,2.0702,2.0699,2.0726,2.0729,2.0733,2.0784,2.0794,2.0823,2.0774,2.0916,2.092,2.0924,2.0954,2.0961,2.0967,0,0,0,0,0,2.0571,2.0614,2.0609,2.0619,2.067,2.0712,2.0719,2.0722,2.0704,2.0726,2.0738,2.0728,2.0814,2.0789,2.08,2.0831,2.0915,2.0919,2.0923,2.0951,2.096,2.0967,0,0,0,0,0,0,2.0592,2.0617,2.0612,2.0664,2.0686,2.0709,2.0737,2.0731,2.0759,2.0755,2.0758,2.0764,2.0815,2.0827,2.08,2.0889,2.0862,2.0868,2.0879,2.0888,2.0894,2.0892,2.0777,0,0,0,0,0,2.0603,2.0635,2.0655,2.0699,2.071,2.0722,2.074,2.0741,2.0764,2.0773,2.0789,2.0813,2.0845,2.0867,2.0897,2.0955,2.0962,2.0981,2.0988,2.0994,2.1,2.1036,2.1046,2.094,2.094,2.094,0,0,2.0626,2.0643,2.0663,2.0704,2.0721,2.0755,2.073,2.0766,2.0792,2.0779,2.0827,2.0839,2.0866,2.092,2.0945,2.0932,2.1031,2.0999,2.1003,2.1007,2.1041,2.1051,2.106,2.0943,2.0942,2.0942,0,0,2.0685,2.07,2.0741,2.0759,2.0785,2.0793,2.0803,2.0827,2.0836,2.0883,2.0875,2.0906,2.0961,2.0982,2.0999,2.1069,2.1062,2.1079,2.1115,2.1149,2.1158,2.1165,2.1194,2.1204,2.1085,2.1085,2.1085,0,2.071,2.0761,2.0762,2.08,2.082,2.081,2.0852,2.0869,2.0905,2.092,2.0904,2.0975,2.0992,2.1053,2.1071,2.1084,2.1097,2.1077,2.1156,2.1164,2.1171,2.1198,2.1209,2.1087,2.1086,2.1086,2.1086,0,2.0792,2.0827,2.0857,2.0893,2.0915,2.0955,2.0964,2.0987,2.0986,2.0995,2.1046,2.1066,2.1102,2.1116,2.1114,2.1178,2.117,2.1155,2.1129,2.1183,2.1209,2.1219,2.109,2.1089,2.1088,2.1088,0,0,2.0867,2.0904,2.0915,2.0933,2.0962,2.099,2.1031,2.1066,2.1088,2.1112,2.1149,2.1196,2.1184,2.1204,2.1205,2.1235,2.1294,2.1217,2.1218,2.1234,2.1369,2.1383,2.1394,2.1288,2.129,2.1292,2.1368,0,2.0932,2.1003,2.1007,2.1072,2.1107,2.1098,2.1134,2.1157,2.1167,2.1199,2.121,2.1246,2.1225,2.1238,2.1266,2.128,2.1322,2.1274,2.1325,2.1327,2.1322,2.1407,2.1421,2.1492,2.1378,2.138,2.1381,0,2.1017,2.1046,2.1116,2.1143,2.1158,2.119,2.1225,2.1254,2.1281,2.1287,2.131,2.1308,2.1351,2.1321,2.1383,2.1351,2.1372,2.1382,2.1385,2.1392,2.1359,2.1421,2.1515,2.1527,2.1396,2.1395,2.1394,0,2.107,2.1126,2.1176,2.119,2.1223,2.1246,2.1261,2.1286,2.1308,2.1338,2.1354,2.1388,2.1408,2.1436,2.1444,2.142,2.1507,2.1476,2.1515,2.1515,2.1536,2.1536,2.1639,2.1543,2.1543,2.1543,2.1543,0,2.1144,2.1188,2.12,2.1231,2.1281,2.1284,2.1334,2.1347,2.137,2.1405,2.1398,2.1431,2.1438,2.1472,2.1478,2.1531,2.1539,2.1547,2.1549,2.155,2.1549,2.1566,2.1562,2.1546,2.1545,2.1545,2.1544,0,2.1212,2.1222,2.1276,2.1303,2.1311,2.1347,2.137,2.1401,2.1411,2.1455,2.1466,2.1482,2.1523,2.1533,2.1581,2.1585,2.1649,2.1644,2.164,2.1641,2.1681,2.1679,2.1801,2.1819,2.1709,2.171,2.171,0,2.1261,2.1294,2.1325,2.1348,2.1364,2.1401,2.1424,2.1429,2.1454,2.1489,2.1516,2.1556,2.1589,2.1656,2.1672,2.171,2.1709,2.1749,2.1714,2.1716,2.1714,2.1714,2.1719,2.1756,2.1758,2.1759,2.1759,0,2.1347,2.135,2.1384,2.142,2.1449,2.1477,2.1505,2.1524,2.1533,2.1562,2.1604,2.163,2.168,2.1722,2.176,2.1776,2.1771,2.177,2.1782,2.1785,2.1783,2.1789,2.1662,2.1768,2.1767,2.1766,2.1766,2.1765,2.1409,2.144,2.1468,2.1506,2.1528,2.1554,2.1586,2.16,2.1635,2.1677,2.1678,2.1725,2.1754,2.1805,2.1824,2.1862,2.185,2.1866,2.1871,2.1875,2.1881,2.1774,2.1868,2.1868,2.1868,2.1868,2.1868,0,2.1498,2.1516,2.1551,2.1591,2.1622,2.1613,2.1643,2.1671,2.1712,2.1739,2.1772,2.1823,2.1863,2.1884,2.1924,2.1951,2.195,2.1962,2.1962,2.1967,2.1887,2.1875,2.1963,2.1963,2.1963,2.1963,2.1963,2.1963,2.1549,2.1602,2.161,2.1675,2.1692,2.1738,2.1757,2.1783,2.1805,2.1861,2.1895,2.1908,2.1934,2.1977,2.2015,2.202,2.2037,2.2051,2.2056,2.1982,2.1972,2.1963,2.1952,2.2054,2.2054,2.2133,2.2133,2.2134]}]]